Погода в Городовиковске

Погода в Городовиковске : погода сейчас, прогноз погоды и архив. Всё, что Вы хотите узнать о погоде в Городовиковске!

Хотите узнать прогноз погоды в Городовиковске? Тогда Вам сюда: Погода в Городовиковске

Поиск расширенной информации на нашем сайте:

Другие новости

Новости СМИ2

Главная страница сайта

Новости сайта

03.07.2017

Напоминаем, что на нашем специализированном сайте Метеоцентр.Азия вы можете получить высокодетализированные автоматические прогнозы погоды по пунктам России, СНГ и мира в авиационном формате (включающие направление и скорость ветра, видимость, явления погоды, количество и форму облачности, нижнюю и верхнюю границу облачности).


Погода в Городовиковске - сегодня

Время (UTC), дата Ветер
(°,м/с) 
Видим.   Явления Облачность Т
(°С)
Тd
(°С)
f(%) Тe
(°С)
Pmin
(гПа)
dP
(гПа)
Po
(мм)
O2
(г/м3)
Тmin Tmax R s Состояние
почвы
09 20.01.18 170 (Ю) 20000 м    9/0 средняя 
[Ac trans]
+1.5 -1 83 +1  1021.3  0.5  758  304           
12 20.01.18 130 (ЮВ) 20000 м    10/9 600 м средняя 
[Sc|Ac As]
+1.8 -0.5 85 +1  1020.5  -0.8  757  303           
15 20.01.18 110 (В) 20000 м    10/9 600 м средняя 
[Sc|Ac As]
+1.2 -0.5 88 +1  1019.7  -0.8  757  304    +2  0.0     
18 20.01.18 130 (ЮВ) 20000 м    10/10 600 м 
[Sc]
+1.4 -0.5 87 1018.8  -0.9  756  303           
21 20.01.18 090 (В) 20000 м    10/10 600 м 
[Sc]
+0.8 -1.1 87 +1  1017.1  -1.7  755  303           
00 21.01.18 130 (ЮВ) 20000 м    10/10 600 м 
[Sc]
+0.2 -1.9 86 -2  1015.6  -1.5  754  304           
03 21.01.18 120 (ЮВ) 20000 м    10/10 600 м 
[Sc]
+0.1 -1.2 91 -2  1014.7  -0.9  753  303  -0.2      мокрый или
старый снег
50-90% 
06 21.01.18 120 (ЮВ) 20000 м    10/10 600 м 
[Sc]
+0.2 -1 92 -2  1013.2  -1.4  752  303           
09 21.01.18 110 (В) 20000 м    10/9 600 м средняя 
[Sc|Ac As]
+1.1 -0.5 89 -1  1011.4  -1.8  750  301           
12 21.01.18 120 (ЮВ) 20000 м  в посл. час ливневой дождь  10/10 600 м 
[Sc]
+1.1 -0.3 90 1012.1  0.7  751  301           
15 21.01.18 220 (ЮЗ) 20000 м    8/8 600 м 
[Sc]
+3.6 +1.3 85 +2  1013  752  299    +3.6  0.3     
18 21.01.18 270 (З) 20000 м    10/10 600 м 
[Sc]
+2.2 +0.8 90 1015  1.9  753  301           
21 21.01.18 340 (С) 4000 м  дымка  10/10 600 м 
[Sc]
+0.5 -0.4 94 -2  1016.8  1.7  754  303           
00 22.01.18 120 (ЮВ) 4000 м  дымка  10/10 600 м 
[Sc]
-0.1 -0.9 94 -1  1017.8  0.6  755  304           
03 22.01.18 100 (В) 4000 м  дымка  10/10 600 м 
[Sc]
-0 -0.7 95 -1  1015.8  -1.6  754  304  -0.2         
06 22.01.18 090 (В) 4000 м  дымка  10/10 600 м 
[Sc]
+0.1 -0.5 96 -2  1014.4  -1.4  753  303           
09 22.01.18 090 (В) 4{10}  4000 м  дымка  10/10 600 м 
[Sc]
+0.9 -0.1 93 -1  1012.6  -1.7  751  302           
12 22.01.18 100 (В) 20000 м    10/10 600 м 
[Sc]
+1.4 +0.1 91 -1  1011.5  -1.1  751  301           
15 22.01.18 100 (В) 4000 м    10/8 600 м средняя 
[Sc|Ac As]
+0.3 -0.5 94 -2  1011.5  751  302    +1.5  0.0     
18 22.01.18 100 (В) 4000 м  дымка  10/10 600 м 
[Sc]
+0.1 -0.7 94 -2  1011.3  -0.2  750  302           
21 22.01.18 110 (В) 4000 м  дымка  10/10 600 м 
[Sc]
+0.1 -0.3 97 -1  1011  -0.3  750  302           
00 23.01.18 120 (ЮВ) 4000 м  дымка  10/10 600 м 
[Sc]
+0.2 -0.2 97 -2  1009.9  -1.1  749  302           
03 23.01.18 120 (ЮВ) 2000 м  дымка  10/10 600 м 
[Sc]
-0 -0.4 97 -2  1009  -1  749  302  -0.1    0.0     
06 23.01.18 120 (ЮВ) 2000 м  дымка  10/10 300 м 
[St]
-0.2 -0.5 98 -2  1010.5  1.5  750  302  -0.3         
09 23.01.18 130 (ЮВ) 4000 м  дымка  10/10 600 м 
[Sc]
+0.4 +0 97 -1  1009.7  -0.7  749  301           
Время (UTC), дата Ветер
(°,м/с) 
Видим.   Явления Облачность Т
(°С)
Тd
(°С)
f(%) Тe
(°С)
Pmin
(гПа)
dP
(гПа)
Po
(мм)
O2
(г/м3)
Тmin Tmax R s Состояние
почвы

Для получения пояснительной информации подведите курсор к названию столбца.

ПОГОДА в Городовиковске - архив

Всё, что Вы хотите узнать о погоде в Городовиковске - удобно и подробно!

Выберите нужную дату (начиная с 1 января 2015* года) и нажмите кнопку "Найти".
Будут отображены архивные сводки погоды по пункту Городовиковск, начиная с указанной даты.


Отображать данные в формате CSV (для использования в таблицах Excel)


Внимание! Наш архив погоды предназначен исключительно для личного некоммерческого использования в познавательных целях. Если Вам необходимы официальные справки о состоянии погоды (для производственных, юридических, коммерческих и т.п. целей), обращайтесь в органы Росгидромета.

*Примечание: данная дата относится к архиву по метеостанциям СССР (Россия, СНГ, Балтия).
Архив по метеостанциям Зарубежной Европы и Азии (кроме Китая) хранится 10 дней, по другим регионам земного шара (Китай, Африка, Америка, Австралия, Океания) - 1 день.

Городовиковск - район местоположения метеостанции


Название, широта, долгота, высота метеостанции:
Городовиковск 46.1°ш. 41.1°д. 86 м над ур. моря [Российская Федерация]

Дополнительная информация

В oтличие oт бoльшинства пoгoдных сайтoв мы публикуем пoдрoбную метеoинфoрмацию в детальнoм прoфессиoнальнoм фoрмате.

Характеристики температуры и влажнoсти вoздуха измеряются на высoте 2 м в тени вдали oт зданий и деревьев.
Скoрoсть ветра измеряется на высoте 10 м (на урoвне рoста челoвека скoрoсть ветра ниже в 1.5-2 раза). Если метеoстанция нахoдится в гoрoде или в лесу, тo скoрoсть ветра занижена на 2-4 м/с пo сравнению с oткрытым местoм. Скoрoсть ветра над акватoриями крупных рек и oзёр, а также на вершинах хoлмoв на 2-5 м/с выше, чем в oбычных услoвиях.
Атмoсфернoе давление в разных тoчках местнoсти мoжет значительнo oтличаться oт давления на метеoстанции, в зависимoсти oт услoвий рельефа (при пoдъёме на 10 м давление пoнижается примернo на 1 мм рт.ст.).